Regional Weather Roundup
Issued by NWS

Home | Current Version | Previous Version | Graphics & Text | Print | Product List | Glossary On
Versions: 1 2 3 4 5 6 7 8 9 10 11 12 13 14 15 16 17 18 19 20 21 22 23 24 25 26 27 28 29 30 31 32 33 34 35 36 37 38 39 40 41 42 43 44 45 46 47 48 49 50
000
ASUS43 KDMX 271007
RWRIA

WEATHER ROUNDUP FOR IOWA
NATIONAL WEATHER SERVICE DES MOINES IA
500 AM CDT THU AUG 27 2015

NOTE: "FAIR" INDICATES FEW OR NO CLOUDS BELOW 12,000 FEET WITH NO
SIGNIFICANT WEATHER AND/OR OBSTRUCTIONS TO VISIBILITY.

* - THESE STATIONS ARE NOT NWS STATIONS...THUS NOT UNDER NWS
QUALITY CONTROL.  THEY ALSO DO NOT REPORT WEATHER SUCH
AS PRECIPITATION OR FOG.

IAZ001>003-012>014-020>022-031>034-043>046-271100-
   NORTHWEST IOWA

CITY           SKY/WX    TMP DP  RH WIND       PRES   REMARKS
CARROLL *      MOCLDY    54  54 100 SE5       30.08S
CHEROKEE *     CLOUDY    59  57  94 CALM      30.06F
DENISON *      CLOUDY    61  55  82 SE8       30.05S
LE MARS *      CLEAR     63  61  94 CALM      30.05R
ORANGE CITY *  CLEAR     61  57  88 SE3       30.06R
SHELDON *      CLOUDY    61  57  88 SE5       30.05S
SIOUX CITY     CLOUDY    62  58  86 SE9       30.02F
SPENCER        CLOUDY    57  52  83 SE6       30.08S
STORM LAKE *   MOCLDY    59  55  88 S8        30.09R
$$

IAZ055>058-069>071-079>083-090>094-271100-
   SOUTHWEST IOWA

CITY           SKY/WX    TMP DP  RH WIND       PRES   REMARKS
ATLANTIC *     CLOUDY    59  54  82 S5        30.09S
AUDUBON *      CLEAR     55  52  88 CALM      30.10S
CLARINDA *     MOCLDY    59  55  88 CALM      30.09F
COUNCIL BLFS * MOCLDY    63  59  88 SE12      30.05F
CRESTON *      CLEAR     57  54  88 SE7       30.11S
HARLAN  *      CLEAR     61  61 100 S3        30.11S
LAMONI         CLEAR     60  54  80 SE6       30.11S
RED OAK *      CLOUDY    63  55  77 S3        30.08S
SHENANDOAH *   MOCLDY    64  57  77 SE8       30.06F
$$

IAZ047>049-059>061-072>074-084-271100-
   CENTRAL IOWA

CITY           SKY/WX    TMP DP  RH WIND       PRES   REMARKS
AMES           CLEAR     51  50  96 SE3       30.10F FOG
ANKENY *       CLEAR     52  52 100 CALM      30.11S FOG
CHARITON *     CLOUDY    55  54  94 SE5       30.11F
DES MOINES     MOCLDY    61  53  75 SE8       30.10F
GRINNELL*      CLEAR     55  52  88 SE3       30.14F
KNOXVILLE *    CLEAR     57  52  82 SE7       30.10F
MARSHALLTOWN   PTCLDY    52  50  93 E6        30.12F
PELLA *        CLEAR     55  55 100 SE5       30.13S
PERRY *          N/A     55  54  94 SE5       30.09S
$$

IAZ004>006-015-016-023>025-035-036-271100-
   NORTH CENTRAL IOWA

CITY           SKY/WX    TMP DP  RH WIND       PRES   REMARKS
ALGONA *       CLEAR     57  54  88 S10       30.09S
CLARION *      CLEAR     57  54  88 SE8       30.10F
ESTHERVILLE    MOCLDY    54  53  97 S7        30.07F
FORT DODGE *   PTCLDY    57  52  82 CALM      30.10S
MASON CITY     PTCLDY    49  48  97 CALM      30.12F
FOREST CITY *  CLEAR     50  50 100 CALM      30.10F
IOWA FALLS *     N/A     52  50  93 SE5       30.12F
$$

IAZ007>011-017>019-026>030-037>042-050>054-066-271100-
   NORTHEAST IOWA

CITY           SKY/WX    TMP DP  RH WIND       PRES   REMARKS
CEDAR RAPIDS   CLEAR     52  52 100 CALM      30.15R
CHARLES CITY * PTCLDY    52  52 100 E7        30.13F
CLINTON *      CLEAR     54  52  94 CALM      30.21R
DECORAH *      MOCLDY    52  50  93 CALM      30.16R
DUBUQUE        CLEAR     55  53  93 S7        30.17R
MONTICELLO *   CLEAR     48  48 100 CALM      30.16R
OELWEIN *      MOCLDY    52  52 100 E3        30.16S
WATERLOO       PTCLDY    50  49  96 E5        30.13S
$$

IAZ064-065-067-068-078-271100-
   EAST CENTRAL IOWA

CITY           SKY/WX    TMP DP  RH WIND       PRES   REMARKS
DAVENPORT      CLEAR     55  53  93 SE6       30.18R
IOWA CITY      CLEAR     56  54  93 CALM      30.17R
MT. PLEASANT * CLEAR     55  52  88 CALM      30.17R
MUSCATINE *    CLEAR     54  52  94 CALM      30.17R FOG
QUAD CITIES    CLEAR     54  51  90 E3        30.17R
$$

IAZ062-063-075>077-085>089-095>099-271100-
   SOUTHEAST IOWA

CITY           SKY/WX    TMP DP  RH WIND       PRES   REMARKS
BURLINGTON     CLEAR     57  55  93 S3        30.16R
FAIRFIELD *    CLEAR     57  54  88 S6        30.16R
FORT MADISON * CLEAR     57  55  94 S3        30.17R
KEOKUK *       CLEAR     57  55  94 SE3       30.15R
OSKALOOSA *      N/A     54  52  94 SE5       30.13R
CENTERVILLE *  CLEAR     52  50  93 SE5       30.14S
OTTUMWA        CLEAR     56  54  93 SE6       30.12S
WASHINGTON *     N/A    N/A N/A N/A MISG        N/A
$$

ABBREVIATIONS USED IN REMARKS
   TC - TEMPERATURES IN CELSIUS
  WCI - WIND CHILL INDEX
   HX - HEAT INDEX
  VSB - VISIBILITY
$$




USA.gov is the U.S. government's official web portal to all federal, state and local government web resources and services.